1489212000.16,4352,6.75,73108.8,-9.89,-20.25,-20.53,0,*69
1489212001.41,4353,6.75,73112.5,-9.91,-20.69,-21.03,0,*6D
1489212002.65,4354,6.75,73116.3,-9.89,-20.89,-21.23,0,*6F
1489212003.9,4355,6.75,73108.8,-9.89,-20.83,-21.03,0,*66
1489212005.17,4356,6.75,73110.0,-9.87,-20.53,-20.79,0,*6A
1489212006.4,4357,6.75,73110.0,-9.87,-20.63,-21.17,0,*61
1489212007.62,4358,6.75,73110.8,-9.87,-20.69,-21.09,0,*6B
1489212008.84,4359,6.75,73114.3,-9.85,-20.79,-21.09,0,*69
1489212010.08,4360,6.75,73116.3,-9.87,-21.09,-21.33,0,*6E
1489212011.31,4361,6.75,73100.3,-9.87,-21.17,-21.47,0,*63
1489212012.55,4362,6.69,73102.3,-9.87,-21.09,-21.33,0,*6C
1489212013.8,4363,6.75,73108.3,-9.87,-21.27,-21.43,0,*66
1489212015.0,4364,6.75,73108.3,-9.85,-20.93,-21.17,0,*6C
1489212016.26,4365,6.75,73108.8,-9.87,-20.83,-20.93,0,*63
1489212017.48,4366,6.75,73108.8,-9.87,-20.93,-21.09,0,*63
1489212018.7,4367,6.75,73108.5,-9.85,-20.93,-20.99,0,*68
1489212019.95,4368,6.75,73114.3,-9.87,-20.93,-20.99,0,*65
1489212021.18,4369,6.75,73114.3,-9.85,-20.83,-21.09,0,*6F
1489212022.4,4370,6.75,73106.3,-9.85,-20.99,-21.09,0,*6C
1489212023.65,4371,6.75,73112.0,-9.85,-20.83,-20.99,0,*6E
1489212024.85,4372,6.75,73114.8,-9.85,-20.93,-21.09,0,*64
1489212026.1,4373,6.75,73116.0,-9.83,-20.79,-20.93,0,*65
1489212027.33,4374,6.75,73112.8,-9.81,-20.79,-20.89,0,*6B
1489212028.57,4375,6.75,73106.5,-9.83,-20.63,-20.79,0,*6C
1489212029.82,4376,6.75,73110.3,-9.83,-20.63,-20.79,0,*6F
1489212031.06,4377,6.75,73122.8,-9.83,-20.63,-20.79,0,*6E
1489212032.27,4378,6.75,73116.0,-9.81,-20.73,-20.89,0,*6D
1489212033.46,4379,6.75,73112.5,-9.81,-20.93,-21.13,0,*60
1489212034.73,4380,6.75,73114.0,-9.83,-20.79,-21.03,0,*61
1489212035.94,4381,6.75,73110.5,-9.81,-20.63,-20.93,0,*61
1489212037.17,4382,6.75,73106.0,-9.81,-20.79,-20.89,0,*62
1489212038.42,4383,6.75,73104.0,-9.83,-20.89,-21.23,0,*6F
1489212039.68,4384,6.75,73106.5,-9.81,-21.03,-21.23,0,*69
1489212040.9,4385,6.75,73102.8,-9.81,-20.79,-20.93,0,*6E
1489212042.13,4386,6.75,73100.0,-9.79,-20.59,-20.83,0,*69
1489212043.35,4387,6.75,73112.8,-9.79,-20.59,-20.89,0,*62
1489212044.58,4388,6.75,73108.5,-9.79,-20.59,-20.83,0,*67
1489212045.8,4389,6.75,73106.3,-9.79,-20.69,-20.83,0,*65
1489212047.03,4390,6.75,73104.8,-9.79,-20.73,-20.99,0,*6D
1489212048.29,4391,6.75,73100.0,-9.77,-21.09,-21.23,0,*6E
1489212049.49,4392,6.75,73112.8,-9.79,-20.89,-21.17,0,*6D
1489212050.72,4393,6.75,73106.8,-9.79,-20.89,-20.99,0,*6B
1489212052.0,4394,6.75,73114.0,-9.77,-20.83,-20.99,0,*68
1489212053.28,4395,6.75,73112.3,-9.77,-21.03,-21.33,0,*61
1489212054.53,4396,6.75,73114.0,-9.77,-21.09,-21.33,0,*68
1489212055.76,4397,6.75,73104.0,-9.77,-21.09,-21.39,0,*63
1489212056.99,4398,6.75,73110.0,-9.77,-20.89,-21.17,0,*69
1489212058.22,4399,6.75,73110.0,-9.79,-20.99,-21.17,0,*67
1489212059.42,4400,6.75,73106.5,-9.79,-20.89,-21.09,0,*6E
1489212060.67,4401,6.75,73112.8,-9.77,-20.73,-20.99,0,*6C
1489212061.91,4402,6.75,73114.8,-9.77,-20.73,-20.89,0,*6E
1489212063.14,4403,6.75,73122.8,-9.77,-20.69,-20.73,0,*61
1489212064.38,4404,6.75,73118.5,-9.75,-20.49,-20.79,0,*6C
1489212065.61,4405,6.75,73122.0,-9.75,-20.53,-20.69,0,*67
1489212066.83,4406,6.75,73122.3,-9.75,-20.63,-20.79,0,*66
1489212068.08,4407,6.75,73118.8,-9.73,-20.69,-20.83,0,*6E
1489212069.3,4408,6.75,73118.5,-9.73,-20.69,-21.13,0,*69
1489212070.5,4409,6.75,73118.3,-9.75,-20.63,-20.93,0,*6D
1489212071.75,4410,6.75,73116.5,-9.75,-20.79,-21.03,0,*66
1489212072.98,4411,6.75,73110.5,-9.75,-20.69,-20.83,0,*6F
1489212074.25,4412,6.75,73108.8,-9.73,-20.83,-21.03,0,*67
1489212075.5,4413,6.69,73110.3,-9.73,-20.69,-21.03,0,*62
1489212076.73,4414,6.75,73110.5,-9.73,-20.69,-20.93,0,*6D
1489212078.0,4415,6.75,73108.5,-9.73,-21.03,-21.33,0,*6A
1489212079.24,4416,6.69,73102.0,-9.71,-20.79,-20.79,0,*68
1489212080.51,4417,6.75,73110.8,-9.73,-20.19,-20.19,0,*6B
1489212081.73,4418,6.75,73114.8,-9.71,-19.99,-20.35,0,*6A
1489212082.97,4419,6.75,73094.8,-9.67,-20.59,-21.23,0,*6C
1489212084.19,4420,6.75,73096.5,-9.71,-20.73,-21.23,0,*69
1489212085.39,4421,6.75,73116.8,-9.71,-20.59,-21.13,0,*63
1489212086.62,4422,6.75,73108.0,-9.71,-20.89,-21.27,0,*6A
1489212087.87,4423,6.75,73110.8,-9.71,-20.79,-21.23,0,*60
1489212089.07,4424,6.75,73114.8,-9.67,-20.59,-21.13,0,*61
1489212090.27,4425,6.75,73114.3,-9.67,-20.63,-21.13,0,*69
1489212091.5,4426,6.75,73114.0,-9.67,-20.89,-21.27,0,*69
1489212092.69,4427,6.75,73108.8,-9.67,-21.13,-21.73,0,*6B
1489212093.93,4428,6.75,73102.8,-9.71,-20.99,-21.53,0,*62
1489212095.18,4429,6.75,73110.8,-9.67,-21.23,-21.83,0,*69
1489212096.43,4430,6.75,73114.5,-9.71,-20.99,-21.57,0,*6F
1489212097.62,4431,6.75,73116.8,-9.67,-20.93,-21.43,0,*66
1489212098.81,4432,6.75,73118.5,-9.71,-20.73,-21.39,0,*61
1489212100.04,4433,6.75,73106.0,-9.67,-20.63,-21.27,0,*69
1489212101.23,4434,6.75,73110.8,-9.71,-20.63,-21.13,0,*6E
1489212102.48,4435,6.75,73116.5,-9.71,-20.99,-21.67,0,*69
1489212103.67,4436,6.75,73124.8,-9.71,-20.93,-21.73,0,*65
1489212104.89,4437,6.75,73126.5,-9.71,-20.49,-21.39,0,*6D
1489212106.12,4438,6.75,73110.3,-9.71,-20.59,-21.53,0,*6F
1489212107.34,4439,6.75,73102.8,-9.71,-20.89,-21.57,0,*67
1489212108.56,4440,6.75,73108.3,-9.71,-20.93,-21.57,0,*62
1489212109.77,4441,6.75,73114.0,-9.71,-20.93,-21.57,0,*63
1489212110.96,4442,6.75,73112.3,-9.71,-20.93,-21.73,0,*66
1489212112.18,4443,6.75,73108.3,-9.71,-20.79,-21.43,0,*60
1489212113.37,4444,6.75,73104.3,-9.71,-20.89,-21.43,0,*68
1489212114.62,4445,6.75,73124.3,-9.67,-20.79,-21.53,0,*60
1489212115.89,4446,6.75,73124.0,-9.73,-20.99,-21.87,0,*61
1489212117.14,4447,6.69,73090.3,-9.73,-21.13,-21.97,0,*62
1489212118.36,4448,6.75,73086.5,-9.73,-20.93,-21.77,0,*6A
1489212119.59,4449,6.75,73092.5,-9.73,-20.63,-21.93,0,*6E
1489212120.83,4450,6.75,73092.5,-9.73,-20.19,-21.47,0,*62
1489212122.07,4451,6.75,73106.0,-9.73,-20.09,-21.57,0,*63
1489212123.31,4452,6.75,73110.3,-9.73,-20.09,-21.57,0,*60
1489212124.57,4453,6.75,73098.0,-9.73,-20.19,-21.57,0,*60
1489212125.82,4454,6.75,73082.5,-9.73,-20.49,-21.73,0,*64
1489212127.04,4455,6.75,73096.5,-9.73,-20.63,-21.77,0,*69
1489212128.26,4456,6.75,73132.3,-9.73,-20.63,-21.63,0,*6F
1489212129.49,4457,6.75,73112.8,-9.75,-20.69,-21.87,0,*68
1489212130.73,4458,6.75,73080.3,-9.75,-20.79,-21.97,0,*67
1489212131.93,4459,6.75,73078.5,-9.75,-20.93,-21.93,0,*66
1489212133.21,4460,6.75,73088.5,-9.73,-20.99,-21.87,0,*65
1489212134.43,4461,6.75,73092.0,-9.71,-20.73,-21.83,0,*66
1489212135.67,4462,6.75,73096.0,-9.73,-20.25,-21.57,0,*6D
1489212136.92,4463,6.75,73096.0,-9.71,-20.15,-21.23,0,*6E
1489212138.11,4464,6.75,73092.8,-9.75,-20.09,-21.43,0,*66
1489212139.33,4465,6.75,73098.0,-9.75,-19.75,-20.79,0,*6E
1489212140.59,4466,6.75,73098.3,-9.75,-19.31,-21.03,0,*61
1489212141.79,4467,6.75,73100.5,-9.75,-19.71,-21.47,0,*64
1489212143.0,4468,6.75,73104.5,-9.75,-20.19,-21.73,0,*68
1489212144.22,4469,6.75,73126.3,-9.75,-20.35,-21.43,0,*64
1489212145.45,4470,6.75,73116.5,-9.75,-19.61,-20.93,0,*6B
1489212146.65,4471,6.75,73108.8,-9.75,-19.71,-21.43,0,*67
1489212147.88,4472,6.75,73102.5,-9.75,-19.71,-21.03,0,*60
1489212149.14,4473,6.75,73110.8,-9.73,-19.27,-20.63,0,*63
1489212150.35,4474,6.75,73100.0,-9.75,-19.71,-21.47,0,*66
1489212151.57,4475,6.75,73110.8,-9.77,-20.29,-21.39,0,*6B
1489212152.8,4476,6.75,73118.8,-9.77,-20.25,-20.59,0,*63
1489212154.03,4477,6.75,73120.3,-9.77,-19.47,-19.37,0,*6E
1489212155.26,4478,6.75,73118.3,-9.77,-17.83,-18.45,0,*63
1489212156.54,4479,6.75,73118.3,-9.77,-17.41,-17.79,0,*6C
1489212157.78,4480,6.75,73114.5,-9.75,-17.45,-18.11,0,*6D
1489212158.98,4481,6.75,73116.0,-9.75,-16.89,-18.07,0,*6A
1489212160.23,4482,6.75,73104.3,-9.73,-16.75,-18.01,0,*6A
1489212161.48,4483,6.75,73106.0,-9.75,-16.17,-17.59,0,*6B
1489212162.71,4484,6.75,73102.0,-9.75,-16.41,-17.93,0,*69
1489212163.93,4485,6.75,73096.3,-9.75,-17.03,-19.17,0,*6D
1489212165.14,4486,6.75,73118.5,-9.75,-18.83,-20.25,0,*62
1489212166.36,4487,6.75,73122.0,-9.75,-18.99,-20.35,0,*69
1489212167.6,4488,6.75,73116.3,-9.75,-18.93,-20.39,0,*60
1489212168.87,4489,6.75,73098.3,-9.75,-19.27,-20.49,0,*68
1489212170.13,4490,6.75,73104.8,-9.73,-19.31,-20.39,0,*66
1489212171.38,4491,6.75,73104.0,-9.75,-19.41,-19.61,0,*61
1489212172.65,4492,6.75,73104.5,-9.77,-18.89,-19.61,0,*65
1489212173.91,4493,6.75,73108.5,-9.77,-18.31,-19.47,0,*63
1489212175.16,4494,6.75,73116.3,-9.75,-17.93,-19.27,0,*67
1489212176.38,4495,6.75,73108.8,-9.73,-17.35,-19.03,0,*6A
1489212177.63,4496,6.75,73106.3,-9.75,-17.07,-18.55,0,*6C
1489212178.85,4497,6.75,73100.5,-9.73,-16.75,-18.21,0,*6C
1489212180.08,4498,6.75,73104.3,-9.75,-16.83,-17.93,0,*6A
1489212181.3,4499,6.75,73108.3,-9.73,-16.97,-17.73,0,*66
1489212182.55,4500,6.75,73110.3,-9.73,-16.59,-17.63,0,*64
1489212183.74,4501,6.75,73114.5,-9.75,-16.89,-18.41,0,*61
1489212184.99,4502,6.75,73100.8,-9.73,-17.03,-18.69,0,*6D
1489212186.21,4503,6.75,73102.3,-9.73,-17.49,-18.83,0,*66
1489212187.42,4504,6.75,73098.5,-9.71,-17.87,-19.23,0,*6A
1489212188.65,4505,6.75,73104.0,-9.71,-17.87,-19.27,0,*6F
1489212189.84,4506,6.75,73104.3,-9.71,-18.17,-19.51,0,*6B
1489212191.04,4507,6.75,73106.3,-9.71,-18.21,-19.37,0,*6F
1489212192.26,4508,6.75,73122.8,-9.67,-18.01,-19.13,0,*63
1489212193.46,4509,6.75,73108.3,-9.67,-18.21,-19.71,0,*64
1489212194.66,4510,6.75,73106.5,-9.67,-18.79,-20.73,0,*69
1489212195.88,4511,6.75,73104.3,-9.71,-19.57,-21.39,0,*6D
1489212197.09,4512,6.75,73094.5,-9.71,-20.15,-21.73,0,*6C
1489212198.29,4513,6.75,73102.3,-9.71,-20.63,-21.93,0,*62
1489212199.52,4514,6.75,73110.0,-9.71,-20.89,-21.83,0,*60
1489212200.77,4515,6.75,73110.8,-9.67,-20.99,-21.67,0,*6D
1489212201.95,4516,6.75,73104.5,-9.67,-21.09,-21.73,0,*63
1489212203.15,4517,6.75,73108.5,-9.67,-21.13,-21.73,0,*69
1489212204.37,4518,6.75,73112.3,-9.67,-21.39,-21.87,0,*65
1489212205.62,4519,6.75,73112.0,-9.71,-21.53,-21.83,0,*6B
1489212206.84,4520,6.75,73122.5,-9.67,-21.57,-22.03,0,*69
1489212208.07,4521,6.75,73118.3,-9.71,-21.67,-21.93,0,*66
1489212209.28,4522,6.75,73114.5,-9.67,-21.43,-21.57,0,*6C
1489212210.53,4523,6.75,73114.0,-9.71,-21.23,-21.27,0,*6B
1489212211.78,4524,6.75,73116.0,-9.65,-21.03,-21.17,0,*68
1489212213.0,4525,6.75,73112.8,-9.67,-20.79,-20.73,0,*64
1489212214.24,4526,6.75,73108.5,-9.65,-20.39,-20.39,0,*6F
1489212215.51,4527,6.75,73106.8,-9.65,-20.83,-21.03,0,*67
1489212216.76,4528,6.75,73104.3,-9.67,-20.99,-21.27,0,*67
1489212217.96,4529,6.75,73106.5,-9.71,-20.93,-20.73,0,*6B
1489212219.15,4530,6.75,73120.5,-9.67,-20.93,-19.71,0,*6C
1489212220.4,4531,6.75,73100.8,-9.67,-19.41,-18.01,0,*6E
1489212221.65,4532,6.75,73092.5,-9.67,-18.93,-18.01,0,*63
1489212222.9,4533,6.75,73114.0,-9.67,-18.35,-17.59,0,*6C
1489212224.14,4534,6.75,73118.0,-9.63,-17.21,-16.51,0,*6C
1489212225.34,4535,6.75,73114.0,-9.63,-16.59,-16.89,0,*66
1489212226.54,4536,6.75,73120.5,-9.63,-17.49,-18.11,0,*6A
1489212227.79,4537,6.75,73110.5,-9.65,-17.93,-17.83,0,*6E
1489212229.01,4538,6.75,73092.8,-9.61,-18.11,-18.21,0,*67
1489212230.24,4539,6.75,73118.8,-9.61,-18.21,-19.17,0,*61
1489212231.47,4540,6.75,73108.3,-9.61,-18.99,-20.25,0,*67
1489212232.73,4541,6.75,73110.3,-9.61,-19.71,-21.03,0,*64
1489212233.92,4542,6.75,73116.5,-9.63,-20.09,-21.17,0,*65
1489212235.14,4543,6.75,73118.8,-9.63,-20.83,-21.63,0,*65
1489212236.39,4544,6.75,73114.3,-9.61,-21.03,-21.73,0,*68
1489212237.63,4545,6.75,73110.5,-9.61,-21.43,-21.57,0,*6B
1489212238.88,4546,6.75,73112.8,-9.63,-21.03,-21.53,0,*6A
1489212240.1,4547,6.75,73114.0,-9.61,-20.89,-21.43,0,*6B
1489212241.36,4548,6.75,73116.0,-9.61,-19.95,-20.19,0,*6D
1489212242.59,4549,6.75,73112.0,-9.61,-18.99,-18.69,0,*6D
1489212243.84,4550,6.75,73110.3,-9.63,-17.41,-17.97,0,*63
1489212245.09,4551,6.75,73106.8,-9.61,-17.49,-18.89,0,*68
1489212246.32,4552,6.75,73112.3,-9.61,-18.79,-20.39,0,*67
1489212247.57,4553,6.75,73106.3,-9.61,-19.75,-20.79,0,*6F
1489212248.79,4554,6.75,73104.3,-9.63,-19.07,-19.85,0,*66
1489212250.0,4555,6.75,73100.5,-9.63,-19.37,-20.25,0,*64
1489212251.23,4556,6.75,73104.8,-9.61,-19.75,-20.25,0,*63
1489212252.43,4557,6.75,73100.5,-9.59,-19.17,-19.75,0,*62
1489212253.66,4558,6.75,73104.3,-9.61,-18.49,-19.13,0,*6C
1489212254.86,4559,6.75,73102.8,-9.59,-17.49,-17.73,0,*61
1489212256.08,4560,6.75,73104.0,-9.59,-16.93,-16.69,0,*67
1489212257.28,4561,6.75,73104.8,-9.59,-15.67,-15.53,0,*64
1489212258.53,4562,6.75,73104.8,-9.59,-14.79,-14.97,0,*60
1489212259.75,4563,6.75,73114.8,-9.59,-14.65,-15.81,0,*6A
1489212260.96,4564,6.75,73106.8,-9.59,-14.97,-16.45,0,*6B
1489212262.23,4565,6.75,73094.5,-9.57,-15.21,-16.23,0,*68
1489212263.46,4566,6.75,73100.0,-9.55,-14.47,-15.75,0,*68
1489212264.71,4567,6.75,73098.5,-9.55,-14.79,-16.51,0,*61
1489212265.91,4568,6.75,73096.3,-9.55,-15.25,-16.97,0,*6C
1489212267.13,4569,6.75,73096.8,-9.55,-15.95,-18.01,0,*67
1489212268.38,4570,6.75,73104.5,-9.53,-17.21,-18.79,0,*6B
1489212269.63,4571,6.75,73106.0,-9.53,-17.87,-18.93,0,*62
1489212270.84,4572,6.75,73110.0,-9.53,-18.17,-19.07,0,*6B
1489212272.09,4573,6.75,73112.5,-9.53,-17.97,-19.07,0,*6D
1489212273.31,4574,6.75,73102.3,-9.53,-17.35,-19.03,0,*66
1489212274.55,4575,6.75,73094.3,-9.53,-16.79,-18.89,0,*6D
1489212275.82,4576,6.75,73088.0,-9.53,-16.51,-18.89,0,*64
1489212277.04,4577,6.75,73088.0,-9.53,-16.59,-19.07,0,*6A
1489212278.29,4578,6.75,73096.5,-9.53,-16.97,-19.61,0,*67
1489212279.52,4579,6.75,73094.5,-9.51,-17.97,-20.43,0,*6F
1489212280.75,4580,6.75,73092.8,-9.53,-18.45,-20.29,0,*67
1489212282.0,4581,6.75,73094.0,-9.53,-18.89,-20.59,0,*61
1489212283.23,4582,6.75,73084.5,-9.53,-19.51,-20.69,0,*65
1489212284.49,4583,6.75,73088.8,-9.53,-19.85,-20.39,0,*68
1489212285.72,4584,6.75,73092.8,-9.53,-19.71,-19.47,0,*67
1489212286.94,4585,6.75,73110.0,-9.53,-19.17,-18.79,0,*6A
1489212288.16,4586,6.75,73100.0,-9.55,-18.45,-18.35,0,*61
1489212289.36,4587,6.75,73098.8,-9.55,-17.87,-18.45,0,*66
1489212290.55,4588,6.75,73102.8,-9.55,-17.69,-18.99,0,*68
1489212291.76,4589,6.75,73108.5,-9.55,-17.83,-19.37,0,*68
1489212292.99,4590,6.75,73098.5,-9.55,-18.35,-20.63,0,*69
1489212294.19,4591,6.75,73112.8,-9.55,-19.99,-21.77,0,*6B
1489212295.38,4592,6.75,73102.3,-9.55,-20.93,-22.03,0,*68
1489212296.58,4593,6.75,73094.5,-9.55,-21.39,-22.07,0,*6C
1489212297.83,4594,6.75,73114.8,-9.57,-21.39,-22.17,0,*68
1489212299.04,4595,6.75,73108.5,-9.57,-21.09,-21.73,0,*6B
1489212300.29,4596,6.75,73100.3,-9.57,-20.79,-21.43,0,*6D
1489212301.51,4597,6.75,73106.0,-9.55,-20.93,-21.67,0,*6C
1489212302.79,4598,6.75,73092.8,-9.57,-21.57,-22.17,0,*6C
1489212304.04,4599,6.75,73088.0,-9.57,-21.77,-22.21,0,*6A
1489212305.28,4600,6.75,73096.0,-9.57,-21.57,-21.93,0,*61
1489212306.53,4601,6.75,73106.5,-9.57,-21.39,-21.87,0,*6D
1489212307.78,4602,6.75,73110.0,-9.57,-21.09,-21.67,0,*63
1489212308.98,4603,6.75,73108.5,-9.55,-21.09,-21.77,0,*61
1489212310.23,4604,6.75,73104.0,-9.57,-20.93,-21.67,0,*67
1489212311.47,4605,6.75,73106.5,-9.57,-21.23,-21.73,0,*69
1489212312.72,4606,6.75,73100.0,-9.57,-21.39,-21.87,0,*6A
1489212313.97,4607,6.75,73100.8,-9.57,-21.43,-21.87,0,*66
1489212315.25,4608,6.75,73096.3,-9.57,-21.57,-21.87,0,*6C
1489212316.53,4609,6.75,73098.5,-9.57,-21.53,-21.87,0,*69
1489212317.74,4610,6.75,73102.8,-9.57,-21.43,-21.73,0,*6B
1489212318.99,4611,6.75,73108.5,-9.59,-21.27,-21.57,0,*60
1489212320.21,4612,6.75,73110.5,-9.59,-21.03,-21.47,0,*64
1489212321.49,4613,6.75,73096.8,-9.57,-20.83,-21.53,0,*67
1489212322.73,4614,6.75,73110.5,-9.57,-21.43,-21.87,0,*64
1489212323.95,4615,6.75,73108.3,-9.57,-21.39,-21.73,0,*63
1489212325.22,4616,6.75,73102.8,-9.57,-21.27,-21.57,0,*69
1489212326.46,4617,6.75,73110.3,-9.57,-21.13,-21.57,0,*6F
1489212327.74,4618,6.75,73112.3,-9.57,-21.27,-21.67,0,*64
1489212329.01,4619,6.75,73108.5,-9.57,-21.27,-21.67,0,*65
1489212330.27,4620,6.75,73104.5,-9.55,-21.23,-21.67,0,*69
1489212331.49,4621,6.75,73108.8,-9.57,-21.09,-21.43,0,*64
1489212332.76,4622,6.75,73098.8,-9.57,-20.83,-20.83,0,*69
1489212334.0,4623,6.75,73092.8,-9.57,-20.29,-20.19,0,*6B
1489212335.24,4624,6.75,73086.0,-9.57,-20.05,-20.19,0,*62
1489212336.49,4625,6.75,73094.0,-9.57,-20.19,-20.93,0,*6C
1489212337.72,4626,6.75,73098.5,-9.57,-20.59,-21.13,0,*62
1489212338.98,4627,6.75,73102.0,-9.57,-20.19,-20.15,0,*60
1489212340.2,4628,6.75,73096.5,-9.55,-18.65,-19.23,0,*62
1489212341.43,4629,6.75,73102.0,-9.55,-19.13,-20.19,0,*60
1489212342.68,4630,6.75,73102.8,-9.55,-20.15,-20.99,0,*6C
1489212343.88,4631,6.75,73096.5,-9.55,-20.63,-21.13,0,*6F
1489212345.14,4632,6.75,73094.8,-9.55,-20.83,-21.23,0,*61
1489212346.36,4633,6.75,73098.8,-9.55,-21.13,-21.57,0,*6B
1489212347.57,4634,6.75,73090.8,-9.55,-21.09,-21.57,0,*67
1489212348.76,4635,6.75,73094.3,-9.51,-21.09,-21.47,0,*63
1489212350.01,4636,6.75,73096.3,-9.53,-21.03,-21.47,0,*68
1489212351.26,4637,6.75,73096.0,-9.53,-21.23,-21.63,0,*6D
1489212352.51,4638,6.75,73086.0,-9.53,-21.23,-21.63,0,*62
1489212353.77,4639,6.75,73090.5,-9.51,-21.23,-21.67,0,*65
1489212355.02,4640,6.75,73100.8,-9.51,-21.53,-21.83,0,*66
1489212356.27,4641,6.75,73098.5,-9.53,-21.39,-21.83,0,*69
1489212357.49,4642,6.75,73096.5,-9.53,-21.17,-21.63,0,*68
1489212358.68,4643,6.75,73090.5,-9.51,-21.17,-21.63,0,*6B
1489212359.93,4644,6.75,73090.5,-9.53,-21.03,-21.47,0,*6D
1489212361.16,4645,6.75,73096.5,-9.53,-21.17,-21.63,0,*6F
1489212362.41,4646,6.75,73098.3,-9.53,-21.09,-21.53,0,*60
1489212363.65,4647,6.75,73098.3,-9.53,-21.09,-21.53,0,*61
1489212364.93,4648,6.75,73092.0,-9.53,-21.03,-21.53,0,*64
1489212366.15,4649,6.75,73104.3,-9.51,-21.39,-21.83,0,*63
1489212367.4,4650,6.75,73094.8,-9.53,-21.23,-21.63,0,*6C
1489212368.62,4651,6.75,73084.3,-9.53,-21.17,-21.63,0,*6A
1489212369.84,4652,6.75,73092.5,-9.51,-21.39,-21.87,0,*6D
1489212371.06,4653,6.75,73092.5,-9.51,-21.23,-21.63,0,*6D
1489212372.31,4654,6.75,73082.0,-9.51,-21.23,-21.67,0,*6E
1489212373.59,4655,6.75,73092.8,-9.53,-21.53,-21.97,0,*65
1489212374.81,4656,6.75,73084.5,-9.51,-21.63,-21.87,0,*66
1489212376.06,4657,6.75,73086.0,-9.53,-21.33,-21.73,0,*6B
1489212377.33,4658,6.75,73108.8,-9.53,-21.33,-21.83,0,*6B
1489212378.59,4659,6.75,73118.0,-9.53,-21.39,-21.67,0,*6A
1489212379.86,4660,6.75,73114.3,-9.53,-21.33,-21.67,0,*6A
1489212381.06,4661,6.75,73104.5,-9.51,-21.73,-22.03,0,*6C
1489212382.31,4662,6.75,73088.0,-9.53,-21.47,-21.83,0,*61
1489212383.54,4663,6.75,73092.5,-9.51,-21.47,-21.87,0,*66
1489212384.79,4664,6.75,73094.8,-9.53,-21.83,-22.27,0,*62
1489212386.07,4665,6.75,73084.3,-9.53,-21.83,-22.17,0,*60
1489212387.32,4666,6.75,73078.5,-9.53,-22.03,-22.47,0,*6D
1489212388.55,4667,6.75,73098.3,-9.55,-22.17,-22.63,0,*69
1489212389.78,4668,6.75,73102.3,-9.55,-22.17,-22.67,0,*62
1489212391.03,4669,6.75,73084.8,-9.55,-22.17,-22.77,0,*62
1489212392.26,4670,6.75,73094.8,-9.55,-22.17,-22.63,0,*6F
1489212393.51,4671,6.75,73094.8,-9.57,-22.21,-22.67,0,*6D
1489212394.77,4672,6.75,73098.5,-9.57,-22.17,-22.53,0,*6C
1489212395.99,4673,6.75,73098.5,-9.57,-22.03,-22.53,0,*68
1489212397.19,4674,6.75,73102.3,-9.59,-22.11,-22.57,0,*66
1489212398.41,4675,6.75,73100.3,-9.59,-21.97,-22.57,0,*6A
1489212399.61,4676,6.75,73100.3,-9.59,-22.11,-22.53,0,*60
1489212400.88,4677,6.75,73108.0,-9.61,-22.21,-22.73,0,*6B
1489212402.15,4678,6.75,73110.0,-9.61,-22.21,-22.73,0,*64
1489212403.38,4679,6.75,73112.5,-9.61,-22.27,-22.83,0,*6C
1489212404.6,4680,6.75,73108.3,-9.61,-22.07,-22.67,0,*62
1489212405.85,4681,6.75,73104.0,-9.61,-22.21,-22.83,0,*6D
1489212407.07,4682,6.75,73108.0,-9.61,-21.77,-22.41,0,*60
1489212408.3,4683,6.75,73104.5,-9.61,-21.73,-22.53,0,*66
1489212409.51,4684,6.75,73104.5,-9.63,-21.33,-22.41,0,*64
1489212410.76,4685,6.75,73100.5,-9.65,-20.83,-22.11,0,*6C
1489212411.95,4686,6.75,73096.5,-9.63,-20.25,-22.03,0,*66
1489212413.21,4687,6.75,73112.5,-9.65,-19.95,-21.67,0,*61
1489212414.43,4688,6.75,73102.5,-9.63,-19.51,-21.33,0,*61
1489212415.66,4689,6.75,73110.5,-9.63,-19.61,-22.03,0,*63
1489212416.87,4690,6.75,73104.3,-9.65,-20.29,-22.11,0,*68
1489212418.1,4691,6.75,73092.5,-9.63,-20.89,-22.31,0,*67
1489212419.31,4692,6.75,73092.0,-9.65,-21.09,-22.41,0,*6C
1489212420.5,4693,6.75,73092.8,-9.67,-21.09,-22.37,0,*6E
1489212421.7,4694,6.75,73090.0,-9.67,-20.89,-22.37,0,*60
1489212422.93,4695,6.75,73096.0,-9.67,-20.89,-22.47,0,*66
1489212424.17,4696,6.75,73098.3,-9.71,-20.79,-22.31,0,*6C
1489212425.36,4697,6.75,73098.8,-9.71,-20.73,-22.37,0,*61
1489212426.59,4698,6.75,73102.0,-9.67,-20.63,-22.31,0,*6E
1489212427.81,4699,6.75,73106.8,-9.67,-20.59,-22.31,0,*66
1489212429.01,4700,6.75,73100.5,-9.67,-20.73,-22.03,0,*6E
1489212430.19,4701,6.75,73104.3,-9.71,-20.29,-21.73,0,*63
1489212431.38,4702,6.75,73112.3,-9.71,-19.71,-21.43,0,*64
1489212432.59,4703,6.75,73104.8,-9.67,-19.37,-20.59,0,*6A
1489212433.81,4704,6.75,73098.5,-9.67,-18.79,-20.35,0,*6C
1489212435.04,4705,6.75,73098.5,-9.71,-18.73,-20.19,0,*6E
1489212436.26,4706,6.75,73106.3,-9.71,-18.59,-19.91,0,*6F
1489212437.48,4707,6.75,73114.3,-9.71,-18.65,-19.85,0,*64
1489212438.69,4708,6.75,73102.3,-9.71,-18.45,-19.23,0,*65
1489212439.9,4709,6.75,73102.5,-9.67,-17.73,-18.59,0,*65
1489212441.1,4710,6.75,73100.5,-9.71,-17.73,-18.73,0,*62
1489212442.35,4711,6.75,73112.3,-9.71,-17.45,-18.35,0,*64
1489212443.6,4712,6.75,73108.0,-9.71,-17.55,-19.41,0,*64
1489212444.82,4713,6.75,73106.5,-9.71,-18.49,-20.79,0,*66
1489212446.03,4714,6.75,73110.5,-9.67,-19.65,-21.09,0,*6F
1489212447.25,4715,6.75,73120.5,-9.71,-20.05,-20.99,0,*6D
1489212448.48,4716,6.75,73116.8,-9.71,-20.43,-21.23,0,*6C
1489212449.68,4717,6.75,73108.0,-9.71,-21.13,-22.07,0,*6C
1489212450.9,4718,6.75,73108.8,-9.71,-21.57,-22.37,0,*60
1489212452.15,4719,6.75,73100.3,-9.71,-21.67,-22.47,0,*65
1489212453.4,4720,6.75,73100.8,-9.73,-21.97,-22.53,0,*67
1489212454.62,4721,6.75,73110.3,-9.73,-21.93,-22.37,0,*60
1489212455.82,4722,6.75,73130.3,-9.75,-21.93,-22.11,0,*61
1489212457.07,4723,6.75,73126.5,-9.73,-21.73,-21.57,0,*69
1489212458.32,4724,6.75,73086.0,-9.73,-21.47,-20.79,0,*64
1489212459.57,4725,6.75,73082.5,-9.73,-21.17,-20.19,0,*66
1489212460.76,4726,6.75,73092.8,-9.75,-20.39,-19.47,0,*6F
1489212461.99,4727,6.75,73098.5,-9.75,-19.17,-18.55,0,*6A
1489212463.21,4728,6.75,73112.3,-9.75,-17.93,-17.73,0,*6C
1489212464.47,4729,6.75,73108.0,-9.73,-16.97,-17.07,0,*6D
1489212465.69,4730,6.75,73112.8,-9.73,-16.41,-16.45,0,*69
1489212466.97,4731,6.75,73086.8,-9.73,-15.85,-15.81,0,*68
1489212468.22,4732,6.75,73086.8,-9.73,-15.39,-15.11,0,*65
1489212469.43,4733,6.75,73092.8,-9.71,-15.11,-14.93,0,*67
1489212470.65,4734,6.75,73106.0,-9.67,-14.79,-14.61,0,*65
1489212471.85,4735,6.75,73110.8,-9.67,-14.37,-14.15,0,*6D
1489212473.07,4736,6.75,73116.3,-9.67,-13.93,-13.61,0,*63
1489212474.27,4737,6.75,73112.0,-9.67,-13.73,-13.19,0,*63
1489212475.55,4738,6.75,73108.8,-9.65,-13.01,-12.57,0,*60
1489212476.77,4739,6.75,73108.5,-9.63,-12.71,-12.47,0,*60
1489212477.99,4740,6.75,73110.3,-9.63,-12.11,-12.29,0,*60
1489212479.24,4741,6.75,73106.0,-9.61,-11.97,-12.39,0,*6F
1489212480.5,4742,6.75,73088.0,-9.61,-12.25,-12.83,0,*67
1489212481.72,4743,6.75,73094.3,-9.59,-12.29,-12.57,0,*68
1489212482.92,4744,6.75,73078.3,-9.59,-12.39,-13.07,0,*6A
1489212484.17,4745,6.75,73076.8,-9.59,-12.79,-14.51,0,*6B
1489212485.36,4746,6.75,73090.0,-9.59,-13.65,-16.03,0,*61
1489212486.59,4747,6.75,73102.5,-9.59,-14.23,-16.13,0,*64
1489212487.86,4748,6.75,73082.0,-9.57,-15.21,-16.51,0,*60
1489212489.08,4749,6.75,73076.5,-9.55,-15.53,-16.69,0,*6D
1489212490.32,4750,6.75,73080.8,-9.53,-15.57,-16.45,0,*69
1489212491.52,4751,6.75,73076.8,-9.55,-15.63,-16.37,0,*6C
1489212492.77,4752,6.75,73090.5,-9.55,-15.89,-17.59,0,*62
1489212493.99,4753,6.75,73098.5,-9.55,-17.93,-19.51,0,*6C
1489212495.2,4754,6.75,73066.0,-9.55,-19.71,-20.43,0,*60
1489212496.42,4755,6.75,73070.3,-9.55,-19.07,-18.93,0,*66
1489212497.67,4756,6.75,73076.3,-9.53,-17.79,-18.11,0,*6E
1489212498.92,4757,6.75,73092.0,-9.53,-18.73,-19.85,0,*66
1489212500.15,4758,6.75,73070.8,-9.53,-20.25,-20.59,0,*6A
1489212501.41,4759,6.75,73080.5,-9.53,-19.65,-19.17,0,*65
1489212502.63,4760,6.75,73080.8,-9.55,-17.73,-18.01,0,*66
1489212503.88,4761,6.75,73086.3,-9.53,-18.79,-19.31,0,*66
1489212505.14,4762,6.75,73078.5,-9.53,-19.65,-20.43,0,*66
1489212506.39,4763,6.75,73088.3,-9.53,-20.39,-21.03,0,*61
1489212507.64,4764,6.75,73082.8,-9.53,-21.17,-21.83,0,*63
1489212508.89,4765,6.75,73060.0,-9.53,-21.39,-21.97,0,*6B